Location: Gazon
(48.1318°N, 1.2708°W)
Time: 01:54:11
(UTC+00:00)

Cosmos 1674 - Pass Details

Date: 18 September 2020
Orbit: 494 x 518 km, 82.5° (Epoch: 29 October)

Event Time Altitude Azimuth Distance (km) Brightness Sun altitude
Rises 19:02:40 0° 4° (N) 2,655 6.4 -9.4°
Reaches altitude 10° 19:05:26 10° 25° (NNE) 1,762 5.3 -9.9°
Maximum altitude 19:08:02 17° 68° (ENE) 1,366 4.4 -10.3°
Enters shadow 19:09:21 15° 93° (E) 1,476 4.4 -10.5°
